Location: Cassaigne
(43.9082°N, 0.3366°E)
Time: 07:35:50
(UTC+00:00)

Daily predictions for brighter satellites

Satellite Brightness Start Highest point End
(mag) Time Altitude Azimuth Time Altitude Azimuth Time Altitude Azimuth
NOAA 6 4.0 16:49:41 10° SSE 16:54:50 76° ENE 17:00:00 10° N
USA 215 3.8 16:49:13 10° ENE 16:55:28 46° SE 17:01:41 10° SSW
Cosmos 1743 Rocket 3.6 16:51:45 10° N 16:56:11 60° E 17:00:33 10° SSE
COSMO-SKYMED 1 4.3 16:54:25 10° ENE 16:56:40 14° E 16:58:55 10° ESE
ATLAS 5 CENTAUR R/B 3.7 16:51:26 10° NW 16:57:02 47° WSW 17:03:27 10° S
Cosmos 2298 Rocket 4.1 16:52:27 10° NNW 16:57:43 60° ENE 17:02:57 10° SSE
PAYLOAD B 4.2 16:52:10 10° SSE 16:57:44 75° ENE 17:03:20 10° N
PSLV R/B 4.1 16:54:01 10° SSE 16:58:07 83° WSW 17:02:15 10° NNW
Cosmos 2150 Rocket 4.0 16:54:01 10° NNW 16:59:07 56° ENE 17:04:10 10° SE
Cosmos 1900 4.5 16:54:37 10° SSW 16:59:43 87° NW 17:04:55 10° NNE
Cosmos 1818 3.8 16:54:49 10° NNW 17:00:11 52° NE 17:05:29 10° SE
AQUARIUS 4.5 16:56:44 10° SE 17:00:59 43° ENE 17:05:15 10° N
Cosmos 1408 Rocket 4.2 16:57:28 10° NNW 17:01:49 62° W 17:06:06 10° S
Cosmos 1606 3.9 17:00:22 10° SE 17:03:30 23° E 17:06:38 10° NE
CZ-4B DEB 4.4 16:58:21 10° SSE 17:03:51 82° WSW 17:09:22 10° NNW
Sich 1 3.9 17:01:24 10° NNE 17:05:13 28° ENE 17:08:58 10° SE
BREEZE-M TANK 3.3 16:58:05 10° WNW 17:05:30 68° SSW 17:08:50 10° ESE
Cosmos 1842 Rocket 3.9 17:03:20 10° SSW 17:07:38 68° W 17:11:57 10° N
Cosmos 2333 Rocket 3.1 17:02:17 10° SW 17:07:46 48° WNW 17:13:16 10° NNE
Okean O Rocket 1.7 17:03:46 10° SSE 17:07:58 52° ENE 17:12:14 10° N
ISS -3.8 17:07:06 10° SW 17:10:27 82° SSE 17:13:33 12° ENE
Radarsat Rocket 4.1 17:04:39 10° SSE 17:10:34 87° ENE 17:17:08 10° NNW
Nadezhda 1 Rocket 4.0 17:04:38 10° S 17:10:53 70° E 17:17:16 10° NNE
COSMOS 2428 3.4 17:07:36 10° SW 17:13:14 56° WNW 17:18:54 10° NNE
Cosmos 1125 Rocket 3.6 17:08:48 10° NNW 17:13:55 54° ENE 17:19:00 10° SE
Cosmos 1805 Rocket 3.8 17:11:55 10° N 17:16:15 48° ENE 17:20:33 10° SSE
CZ-4B R/B 2.0 17:17:36 10° NNE 17:20:22 30° E 17:23:09 10° SSE
Cosmos 1151 Rocket 4.4 17:17:48 10° SE 17:20:49 19° E 17:23:24 12° NE
Cosmos 2278 Rocket 2.2 17:15:22 10° NNW 17:21:06 86° ENE 17:26:47 10° SSE
Cosmos 1666 Rocket 4.4 17:18:35 10° NNE 17:22:22 27° ENE 17:26:09 10° SE
Cosmos 2154 Rocket 4.0 17:19:18 10° N 17:25:41 86° E 17:32:02 10° S
CRYOSAT 2 4.3 17:21:23 10° N 17:26:17 73° E 17:31:10 10° S
Cosmos 1862 3.5 17:22:18 10° NNW 17:26:21 75° W 17:30:20 10° S
Lacrosse 5 rocket 2.9 17:24:58 10° SSE 17:27:02 15° ESE 17:28:08 13° ESE
USA 267 3.7 17:22:00 10° E 17:28:07 45° NNE 17:34:16 10° NW
NOSS 0 Rocket 4.1 17:26:52 10° SSW 17:33:06 78° WNW 17:39:23 10° NNE
ERS-2 2.4 17:30:14 10° NNE 17:33:46 45° E 17:37:17 10° S
NOAA 12 4.2 17:29:04 10° SSE 17:34:24 82° WSW 17:39:45 10° NNW
Cosmos 2341 Rocket 4.1 17:28:27 10° N 17:34:37 56° ENE 17:40:48 10° SSE
CZ-2D R/B 4.2 17:31:50 10° SE 17:35:00 25° ENE 17:38:12 10° NNE
SL-24 R/B - RUBIN 2 4.3 17:28:51 10° NW 17:35:12 86° ENE 17:40:46 10° SE
CZ-4 R/B 2.6 17:38:23 20° ENE 17:38:23 20° ENE 17:41:20 10° NNE
Cosmos 2219 Rocket 3.8 17:33:54 10° WSW 17:38:55 32° NW 17:43:56 10° N
TELKOM 3 3.0 17:37:54 10° WSW 17:40:41 86° NNW 17:41:32 36° ENE
Envisat 4.4 17:36:41 10° SSW 17:41:27 41° W 17:46:16 10° NNW
SMAP 3.6 17:37:06 10° S 17:41:43 64° W 17:46:21 10° NNW
CZ-3B R/B 3.5 17:40:34 10° SSE 17:41:49 12° SE 17:42:22 11° SE
H-2A R/B 3.0 17:38:06 10° N 17:42:05 47° WNW 17:46:08 10° SW
BREEZE-M DEB (TANK) 1.5 17:39:51 10° WSW 17:42:37 79° SSE 17:43:13 40° ENE
CZ-4B R/B 3.6 17:37:38 10° S 17:42:56 65° WSW 17:48:14 10° NNW
SKYMED 2 3.9 17:40:58 10° NNE 17:45:08 43° E 17:49:15 10° S
USA 81 4.3 17:41:13 10° N 17:46:16 44° E 17:51:17 10° SSE
CREW DRAGON DEMO-1 DEB 3.8 17:44:39 10° NW 17:47:21 29° NNE 17:47:43 28° NE
Cosmos 2237 Rocket 2.4 17:42:29 10° SSW 17:48:06 74° WNW 17:53:46 10° NNE
GENESIS II 4.1 17:45:06 10° NW 17:49:05 88° NE 17:52:57 10° SE
Cosmos 2285 Rocket 4.4 17:43:14 10° N 17:49:17 42° ENE 17:55:15 10° SE
NOAA 11 4.2 17:44:17 10° SSE 17:49:42 90° ENE 17:55:11 10° NNW
Cosmos 1939 Rocket 2.8 17:46:49 10° SSE 17:50:35 55° ENE 17:54:24 10° N
FengYun 1-2 T 4.3 17:46:19 10° SSE 17:51:53 83° WSW 17:57:26 10° NNW
Cosmos 1633 Rocket 3.2 17:48:57 10° N 17:53:12 46° ENE 17:57:23 10° SSE
H-2A R/B 3.0 17:52:26 23° E 17:53:52 26° ENE 17:58:07 10° N
SL-8 Rocket 3.9 17:52:37 10° N 17:58:49 65° E 18:05:02 10° SSE
CSL-04 Rocket 4.5 18:01:44 27° ENE 18:01:44 27° ENE 18:06:07 10° N
USA 281 3.3 17:55:30 10° SE 18:01:51 55° ENE 18:08:15 10° NNW
Cosmos 2369 Rocket 3.4 17:58:01 10° N 18:02:10 22° NE 18:02:10 22° NE
Cosmos 2181 Rocket 4.0 17:57:40 10° S 18:04:03 69° E 18:10:24 10° NNE
Cosmos 1980 4.5 18:00:52 10° SW 18:06:23 51° WNW 18:11:56 10° NNE
MOS 1 Rocket 4.1 18:03:47 23° NE 18:06:31 38° E 18:11:32 10° SSE
Abrixas rocket 3.7 18:04:42 10° W 18:07:07 27° SW 18:08:24 19° S
Cosmos 1959 Rocket 4.5 18:01:35 10° N 18:07:54 62° E 18:14:11 10° SSE
Cosmos 389 Rocket 3.9 18:17:04 10° SW 18:20:16 37° WNW 18:23:13 12° N
YAOGAN 1 2.7 18:21:23 51° ENE 18:21:23 51° ENE 18:25:20 10° N
Cosmos 1689 Rocket 3.4 18:25:22 33° SSW 18:25:22 33° SSW 18:27:06 10° SSW
Cosmos 1933 3.7 18:22:42 10° SSW 18:26:42 64° W 18:29:41 17° N
SL-08 R/B 4.5 18:21:30 10° N 18:27:31 54° ENE 18:33:29 10° SSE
Cosmos 2297 3.6 18:22:36 10° NNW 18:28:19 81° ENE 18:34:02 10° SSE
Cosmos 1470 Rocket 4.0 18:24:19 10° N 18:35:04 - SSE 18:27:22 42° NNE
Cosmos 1943 Rocket 2.2 18:25:53 10° NNW 18:31:18 51° ENE 18:31:41 50° ENE
Cosmos 44 3.4 18:26:13 10° NNW 18:31:29 66° NE 18:32:40 51° ESE
Meteor 1-14 Rocket 4.3 18:26:04 10° N 18:31:56 59° ENE 18:37:49 10° SSE
Okean-O 2.5 18:28:34 10° SSE 18:32:59 84° ENE 18:37:27 10° NNW
COSMO-SKYMED 1 3.1 18:29:20 13° N 18:33:11 57° WNW 18:37:26 10° SSW
NOAA 15 4.4 18:28:42 10° SSE 18:33:59 75° ENE 18:39:16 10° N
CZ-2C R/B 2.8 18:29:57 10° SSE 18:35:08 83° ENE 18:40:06 10° NNW
Cosmos 1867 3.8 18:30:06 10° SW 18:35:30 66° NW 18:37:58 33° NNE
Cosmos 1515 Rocket 4.4 18:31:20 10° S 18:34:01 36° SSE 18:34:01 36° SSE
SL-16 R/B 2.2 18:30:17 10° SSW 18:35:57 84° WNW 18:38:48 31° NNE
ARGOS 4.2 18:38:31 29° NNE 18:38:31 29° NNE 18:41:26 10° N
PSLV R/B 4.0 18:36:54 46° N 18:37:59 71° WNW 18:41:59 10° SSW
USA 215 3.6 18:35:13 29° NE 18:38:36 61° NNW 18:45:00 10° WSW
Meteor 1-26 Rocket 4.3 18:35:12 10° S 18:41:12 87° W 18:47:17 10° N
SL-23 DEB 4.4 18:37:29 10° SW 18:41:12 58° SE 18:41:12 58° SE
Helios 1A Rocket 3.0 18:43:48 60° SSW 18:44:23 71° WSW 18:48:25 10° NNW
Cosmos 2218 Rocket 4.2 18:38:31 10° NNW 18:44:37 69° W 18:50:43 10° S
Cosmos 1782 3.8 18:40:48 10° S 18:43:16 38° S 18:43:16 38° S
ISS -1.6 18:44:37 10° WNW 18:46:31 23° NW 18:46:31 23° NW
CZ-4B R/B 4.3 18:50:56 10° NW 18:52:21 13° WNW 18:53:46 10° W
Cosmos 2366 rocket 4.5 18:49:30 10° NNW 18:55:36 59° W 19:01:36 10° S
Cosmos 1151 Rocket 4.4 18:54:05 10° SW 18:58:04 37° WNW 19:00:19 22° NNW
Lacrosse 5 rocket 3.2 19:02:07 10° WSW 19:03:46 25° WSW 19:03:46 25° WSW
USA 267 3.3 19:09:07 50° SSE 19:10:54 72° SW 19:17:27 10° NW
CZ-4 R/B 3.3 19:14:24 26° WNW 19:14:24 26° WNW 19:16:47 10° NNW
CSL-04 Debris 4.4 19:17:54 67° WSW 19:17:59 67° WSW 19:23:29 10° NNW
ATLAS CENTAUR R/B 4.1 19:05:27 10° NW 19:24:41 76° SW 19:27:27 48° SSE
H-2A R/B 3.0 19:33:04 45° W 19:33:04 45° W 19:38:04 10° NNW
Cosmos 2369 Rocket 3.8 19:41:19 10° NNW 19:43:59 28° NW 19:43:59 28° NW
Cosmos 1943 Rocket 4.3 20:10:19 10° NW 20:13:17 22° W 20:13:17 22° W
